Location: Mentone
(34.5413°N, 85.5351°W)
Time: 09:51:53
(UTC-06:00)

S-56A Canister/Altair - Visible Passes

Search period start: 27 February 2017 00:00
Search period end: 09 March 2017 00:00
Orbit: 639 x 2495 km, 38.9° (Epoch: 25 February)

Date Brightness Start Highest point End Pass type
(mag) Time Alt. Az. Time Alt. Az. Time Alt. Az.
27 Feb 8.6 18:29:19 10° WNW 18:35:31 66° N 18:42:37 18° E visible
27 Feb 8.9 20:32:47 10° WNW 20:40:04 72° SW 20:40:04 72° SW visible
27 Feb 11.2 22:37:27 10° W 22:37:31 10° W 22:37:31 10° W visible
28 Feb 8.5 17:57:11 10° WNW 18:02:57 63° N 18:11:38 10° E visible
28 Feb 8.7 20:00:35 10° WNW 20:07:53 79° SSW 20:09:28 65° SE visible
28 Feb 10.8 22:04:53 10° W 22:06:55 18° W 22:06:55 18° W visible
01 Mar 8.6 19:28:24 10° WNW 19:35:13 85° SSW 19:38:54 42° ESE visible
01 Mar 10.3 21:32:25 10° W 21:36:22 28° WSW 21:36:22 28° WSW visible
02 Mar 8.4 18:56:16 10° WNW 19:02:37 89° NNE 19:08:24 26° ESE visible
02 Mar 9.7 21:00:03 10° W 21:05:52 38° SW 21:05:52 38° SW visible
03 Mar 8.3 18:24:09 10° WNW 18:30:05 83° NNE 18:37:57 14° ESE visible
03 Mar 9.4 20:27:44 10° W 20:34:44 44° SSW 20:35:26 44° SSW visible
04 Mar 9.2 19:55:29 10° W 20:02:06 48° SSW 20:05:03 37° SSE visible
04 Mar 11.0 22:01:52 10° WSW 22:02:32 11° WSW 22:02:32 11° WSW visible
05 Mar 9.0 19:23:17 10° WNW 19:29:30 52° SSW 19:34:46 25° SE visible
05 Mar 10.7 21:29:00 10° WSW 21:32:14 16° SW 21:32:14 16° SW visible
06 Mar 8.8 18:51:06 10° WNW 18:56:59 56° SSW 19:04:33 14° SE visible
06 Mar 10.5 20:56:18 10° WSW 21:01:38 19° SW 21:02:02 19° SSW visible
07 Mar 8.5 18:18:58 10° WNW 18:24:31 61° SSW 18:32:43 10° SE visible
07 Mar 10.3 20:23:43 10° W 20:28:59 21° SW 20:31:56 18° S visible
08 Mar 10.1 19:51:15 10° W 19:56:24 23° SSW 20:01:55 13° S visible
